Location: Unspecified
(42.2600°N, 0.0000°E)
Time: 17:07:47
(UTC+00:00)

ISS - Pass Details

Date: 30 May 2019
Orbit: 408 x 419 km, 51.6° (Epoch: 21 June)

Event Time Altitude Azimuth Distance (km) Brightness Sun altitude
Rises 20:26:45 0° 306° (NW) 2,354 2.3 -9.6°
Reaches altitude 10° 20:29:10 10° 323° (NW) 1,493 0.6 -9.9°
Maximum altitude 20:31:50 21° 15° (NNE) 985 -1.6 -10.3°
Drops below altitude 10° 20:34:30 10° 68° (ENE) 1,495 -1.2 -10.6°
Enters shadow 20:35:46 - 79° (ENE) 1,927 -0.7 -10.8°
